[[{"header":{"parameterUnit":"m.s-1","parameterCategory":1,"la1":30.2991,"la2":30.254,"lo1":-89.0895,"lo2":-89.0444,"dx":0.0017,"dy":0.0017,"nx":28,"ny":28,"refTime":"2023-01-21T15:00:00:Z","depth":0,"parameterNumber":2,"parameterNumberName":"U-component_of_WINDS"},"data":[0,0,0,0,0,0,0,0,0,0,0,0,0,0,0,0,0,0,0,0,0,0,0,0,0,0,0,0,0,0,0,0,0,0,0,0,0,0,0,0,0,0,0,0,0,0,0,0,0,0,0,0,0,0,0,0,0,0,-5.8419,-5.8419,0,-5.846,-5.8461,-5.8461,-5.8323,-5.8318,-5.8314,-5.831,-5.8354,-5.8359,-5.8364,0,0,0,0,0,0,0,0,0,0,0,0,0,-5.8222,-5.8226,-5.8419,-5.8419,-5.842,-5.846,-5.8461,-5.8461,-5.8323,-5.8318,-5.8313,-5.8308,-5.8353,-5.8359,-5.8365,0,0,0,0,0,0,0,0,0,0,0,0,0,-5.829,-5.8228,-5.8418,-5.8356,-5.835,-5.846,-5.8461,-5.8461,-5.8324,-5.8318,-5.8312,-5.8306,-5.8351,-5.8358,-5.8366,-5.8538,0,0,-5.8389,-5.8392,0,0,0,0,0,0,0,0,-5.8286,-5.8297,-5.8364,-5.836,-5.8355,-5.838,-5.8407,-5.8487,-5.8326,-5.8334,-5.831,-5.8303,-5.8368,-5.8374,-5.8395,-5.854,-5.8542,-5.839,-5.8394,-5.8398,-5.84,0,0,0,0,0,0,0,-5.8282,-5.8295,-5.8435,-5.8366,-5.836,-5.8326,-5.8329,-5.8422,-5.8386,-5.8333,-5.8323,-5.833,-5.8364,-5.8389,-5.8395,-5.8543,-5.8389,-5.8396,-5.8401,-5.8404,-5.8833,-5.884,0,0,0,0,0,0,-5.8285,-5.8292,-5.8434,-5.8436,-5.8304,-5.8335,-5.8338,-5.8378,-5.8385,-5.8379,-5.8335,-5.8323,-5.8379,-5.8387,-5.8397,-5.86,-5.8397,-5.8405,-5.8409,-5.8826,-5.8835,-5.8842,0,0,0,0,0,0,-5.8281,-5.8299,-5.8432,-5.8361,-5.8376,-5.8345,-5.8391,-5.8382,-5.8406,-5.8386,-5.8379,-5.8367,-5.8374,-5.8386,-5.8504,-5.86,-5.8408,-5.8415,-5.8818,-5.8829,-5.8838,-5.9009,0,0,0,0,0,0,-5.8276,-5.8299,-5.8363,-5.8364,-5.838,-5.8539,-5.8397,-5.8388,-5.842,-5.8404,-5.8414,-5.8409,-5.837,-5.8494,-5.8512,-5.8607,-5.8421,-5.881,-5.8823,-5.8835,-5.8994,-5.9024,-5.9048,0,0,0,0,0,-5.827,-5.8409,-5.8367,-5.8385,-5.846,-5.8545,-5.8554,-5.8506,-5.8428,-5.8493,-5.848,-5.8409,-5.8586,-5.8507,-5.8526,-5.8625,-5.8803,-5.8819,-5.8834,-5.8982,-5.9018,-5.9048,0,0,0,0,0,0,-5.8421,-5.8408,-5.8361,-5.8505,-5.8527,-5.8521,-5.8602,-5.8544,-5.8589,-5.8573,-5.8511,-5.8515,-5.8645,-5.8646,-5.8558,-5.8793,-5.8682,-5.8702,-5.8788,-5.8821,-5.8848,-5.8845,-5.8427,0,0,0,0,0,-5.8471,-5.854,-5.8525,-5.8654,-5.8667,-5.8633,-5.8668,-5.8629,-5.8649,-5.8658,-5.8654,-5.8677,-5.8738,-5.8779,-5.8834,-5.8994,-5.8995,-5.9071,-5.9098,-5.912,-5.9139,-5.9225,-5.926,-5.8893,-5.8892,-5.8892,0,0,-5.8575,-5.8577,-5.8624,-5.8684,-5.8697,-5.8771,-5.8642,-5.8725,-5.878,-5.8671,-5.8783,-5.8781,-5.8802,-5.8943,-5.9005,-5.8948,-5.924,-5.914,-5.9158,-5.9164,-5.9245,-5.928,-5.931,-5.8903,-5.8901,-5.8899,0,0,-5.8803,-5.8811,-5.8919,-5.8934,-5.8955,-5.8931,-5.8958,-5.8961,-5.8956,-5.9067,-5.8987,-5.9051,-5.9157,-5.9177,-5.92,-5.9438,-5.9374,-5.9457,-5.9599,-5.9684,-5.9713,-5.9738,-5.9824,-5.9856,-5.9475,-5.9476,-5.9476,0,-5.893,-5.9038,-5.8982,-5.9072,-5.9101,-5.9006,-5.9116,-5.9134,-5.9172,-5.9195,-5.9131,-5.9263,-5.927,-5.9415,-5.9473,-5.9495,-5.9524,-5.9456,-5.9713,-5.9738,-5.976,-5.9842,-5.9875,-5.9486,-5.9485,-5.9484,-5.9483,0,-5.9194,-5.927,-5.9355,-5.9394,-5.9433,-5.9533,-5.9494,-5.954,-5.9498,-5.9482,-5.9597,-5.9603,-5.9659,-5.969,-5.9649,-5.983,-5.9794,-5.9723,-5.961,-5.9807,-5.9882,-5.9913,-5.95,-5.9497,-5.9494,-5.9491,0,0,-5.9518,-5.9526,-5.9558,-5.9576,-5.9592,-5.965,-5.9746,-5.9799,-5.9841,-5.9871,-5.9951,-6.0043,-5.9977,-6.0005,-5.9965,-6.004,-6.023,-5.9959,-5.9959,-6.0011,-6.0431,-6.0486,-6.0523,-6.0188,-6.0193,-6.0198,-6.043,0,-5.9743,-5.9907,-5.9861,-6.0025,-6.0096,-6.0007,-6.009,-6.011,-6.0098,-6.0157,-6.0143,-6.021,-6.0117,-6.0134,-6.0203,-6.0192,-6.0314,-6.0174,-6.0263,-6.0267,-6.0262,-6.0562,-6.062,-6.0839,-6.0459,-6.0464,-6.0467,0,-6.0028,-6.0069,-6.0241,-6.0247,-6.0274,-6.0351,-6.0397,-6.0454,-6.0475,-6.0461,-6.0492,-6.0439,-6.0534,-6.042,-6.0552,-6.0458,-6.0492,-6.0492,-6.0499,-6.0507,-6.038,-6.058,-6.0907,-6.0941,-6.0513,-6.051,-6.0506,0,-6.025,-6.0348,-6.0463,-6.0481,-6.049,-6.0546,-6.0552,-6.0567,-6.0603,-6.0644,-6.0667,-6.0719,-6.0748,-6.0789,-6.0752,-6.0672,-6.0891,-6.0772,-6.0883,-6.0884,-6.0934,-6.0931,-6.1273,-6.0953,-6.0953,-6.0952,-6.0952,0,-6.0507,-6.0616,-6.0563,-6.0635,-6.0755,-6.0701,-6.0821,-6.0818,-6.0832,-6.0902,-6.0828,-6.0895,-6.0841,-6.0904,-6.0875,-6.099,-6.1003,-6.0995,-6.0987,-6.1003,-6.1004,-6.1025,-6.1009,-6.0961,-6.0959,-6.0957,-6.0956,0,-6.0775,-6.0744,-6.0865,-6.0864,-6.0866,-6.0955,-6.0954,-6.1021,-6.1003,-6.1093,-6.1111,-6.1085,-6.1155,-6.1121,-6.1195,-6.1176,-6.1324,-6.1294,-6.1318,-6.131,-6.1423,-6.1414,-6.1791,-6.1839,-6.1487,-6.1491,-6.1494,0,-6.0942,-6.1024,-6.1032,-6.1074,-6.1085,-6.1153,-6.1189,-6.114,-6.1181,-6.1212,-6.1276,-6.134,-6.1389,-6.1506,-6.1494,-6.155,-6.1522,-6.1651,-6.153,-6.1545,-6.1526,-6.1523,-6.1531,-6.1675,-6.1679,-6.1683,-6.1685,0,-6.1243,-6.1223,-6.1278,-6.1329,-6.1375,-6.1412,-6.1444,-6.1482,-6.1433,-6.1484,-6.1555,-6.1593,-6.1669,-6.1734,-6.1784,-6.1791,-6.1732,-6.1723,-6.1752,-6.177,-6.1781,-6.1779,-6.1385,-6.1715,-6.1712,-6.171,-6.1708,-6.1707,-6.1466,-6.1535,-6.1552,-6.1617,-6.1635,-6.1667,-6.173,-6.172,-6.1779,-6.1836,-6.1803,-6.1888,-6.1908,-6.1968,-6.1984,-6.205,-6.1999,-6.2041,-6.2051,-6.2063,-6.2079,-6.177,-6.2059,-6.2058,-6.2057,-6.2056,-6.2055,0,-6.1764,-6.1771,-6.183,-6.1877,-6.1928,-6.1866,-6.1898,-6.1946,-6.202,-6.2044,-6.2094,-6.2177,-6.224,-6.2233,-6.2292,-6.2346,-6.232,-6.2363,-6.2359,-6.2363,-6.212,-6.209,-6.2383,-6.2383,-6.2383,-6.2383,-6.2383,-6.2383,-6.1925,-6.204,-6.2023,-6.2147,-6.2152,-6.2234,-6.2258,-6.2287,-6.2305,-6.2401,-6.2454,-6.2448,-6.2461,-6.252,-6.2576,-6.2572,-6.2598,-6.2652,-6.2638,-6.2412,-6.2379,-6.2349,-6.232,-6.2657,-6.2657,-6.2875,-6.2878,-6.2879]},{"header":{"parameterUnit":"m.s-1","parameterCategory":1,"la1":30.2991,"la2":30.254,"lo1":-89.0895,"lo2":-89.0444,"dx":0.0017,"dy":0.0017,"nx":28,"ny":28,"refTime":"2023-01-21T15:00:00:Z","depth":0,"parameterNumber":3,"parameterNumberName":"V-component_of_WINDS"},"data":[0,0,0,0,0,0,0,0,0,0,0,0,0,0,0,0,0,0,0,0,0,0,0,0,0,0,0,0,0,0,0,0,0,0,0,0,0,0,0,0,0,0,0,0,0,0,0,0,0,0,0,0,0,0,0,0,0,0,-2.5986,-2.5985,0,-2.5954,-2.5953,-2.5953,-2.5894,-2.5893,-2.5892,-2.5891,-2.5858,-2.5858,-2.5859,0,0,0,0,0,0,0,0,0,0,0,0,0,-2.5996,-2.5996,-2.5986,-2.5985,-2.5985,-2.5954,-2.5953,-2.5953,-2.5894,-2.5893,-2.5891,-2.589,-2.5858,-2.5858,-2.5859,0,0,0,0,0,0,0,0,0,0,0,0,0,-2.5981,-2.5997,-2.5986,-2.5952,-2.5949,-2.5954,-2.5953,-2.5953,-2.5894,-2.5893,-2.5891,-2.5889,-2.5858,-2.5858,-2.5859,-2.5895,0,0,-2.586,-2.586,0,0,0,0,0,0,0,0,-2.5982,-2.5981,-2.5957,-2.5954,-2.5951,-2.5926,-2.5945,-2.5933,-2.5895,-2.5915,-2.5891,-2.5889,-2.5882,-2.588,-2.5878,-2.5893,-2.5892,-2.586,-2.586,-2.586,-2.586,0,0,0,0,0,0,0,-2.5983,-2.5982,-2.5973,-2.5957,-2.5953,-2.5938,-2.5934,-2.5943,-2.5909,-2.5913,-2.5909,-2.5906,-2.588,-2.5878,-2.5877,-2.5891,-2.586,-2.586,-2.586,-2.586,-2.5933,-2.5934,0,0,0,0,0,0,-2.5989,-2.5983,-2.5974,-2.5972,-2.5962,-2.5939,-2.5935,-2.5936,-2.5908,-2.5903,-2.5907,-2.5903,-2.5878,-2.5877,-2.5876,-2.5915,-2.586,-2.586,-2.586,-2.5931,-2.5933,-2.5935,0,0,0,0,0,0,-2.5989,-2.5989,-2.5975,-2.5976,-2.5973,-2.5941,-2.5942,-2.5936,-2.5934,-2.5904,-2.5898,-2.5911,-2.5877,-2.5875,-2.589,-2.5913,-2.586,-2.5861,-2.5929,-2.5931,-2.5934,-2.5994,0,0,0,0,0,0,-2.599,-2.5989,-2.6003,-2.5977,-2.5974,-2.5991,-2.5944,-2.5937,-2.5934,-2.5929,-2.5906,-2.5901,-2.5875,-2.589,-2.589,-2.5912,-2.5861,-2.5927,-2.593,-2.5933,-2.599,-2.5999,-2.6006,0,0,0,0,0,-2.5991,-2.6021,-2.6004,-2.6003,-2.599,-2.5992,-2.599,-2.596,-2.5937,-2.595,-2.593,-2.5901,-2.591,-2.5892,-2.5892,-2.5914,-2.5925,-2.5929,-2.5933,-2.5987,-2.5997,-2.6006,0,0,0,0,0,0,-2.6051,-2.6017,-2.5997,-2.6021,-2.601,-2.5982,-2.5998,-2.5972,-2.5968,-2.5963,-2.5926,-2.5922,-2.5941,-2.5929,-2.5909,-2.5947,-2.5913,-2.5917,-2.5954,-2.5964,-2.5971,-2.5974,-2.5861,0,0,0,0,0,-2.6067,-2.6072,-2.6042,-2.6066,-2.6061,-2.6031,-2.603,-2.6008,-2.5995,-2.599,-2.5972,-2.5961,-2.5961,-2.5962,-2.596,-2.5988,-2.5982,-2.6004,-2.6012,-2.6018,-2.6022,-2.6035,-2.6044,-2.5948,-2.5948,-2.5948,0,0,-2.61,-2.6083,-2.6088,-2.6077,-2.6066,-2.6071,-2.6027,-2.6035,-2.6038,-2.5992,-2.6004,-2.599,-2.5975,-2.5996,-2.6005,-2.5987,-2.6047,-2.6023,-2.6029,-2.6029,-2.604,-2.6049,-2.6057,-2.595,-2.595,-2.5949,0,0,-2.6164,-2.6151,-2.6169,-2.6158,-2.6141,-2.6121,-2.6125,-2.6101,-2.609,-2.6102,-2.6066,-2.607,-2.6071,-2.6061,-2.6057,-2.6115,-2.6088,-2.6116,-2.6157,-2.617,-2.6178,-2.6184,-2.6204,-2.6212,-2.612,-2.612,-2.612,0,-2.6207,-2.6214,-2.6181,-2.6191,-2.6187,-2.6144,-2.6162,-2.6153,-2.6137,-2.6135,-2.6115,-2.6115,-2.6102,-2.612,-2.6134,-2.6132,-2.6135,-2.6118,-2.6179,-2.6185,-2.6191,-2.621,-2.6217,-2.6123,-2.6123,-2.6123,-2.6122,0,-2.6268,-2.6273,-2.6289,-2.6274,-2.6272,-2.6286,-2.6255,-2.6256,-2.6234,-2.6216,-2.6228,-2.621,-2.6204,-2.6207,-2.6186,-2.6222,-2.6211,-2.6186,-2.6151,-2.6204,-2.6221,-2.6228,-2.6128,-2.6127,-2.6126,-2.6125,0,0,-2.6368,-2.6334,-2.6341,-2.6333,-2.6311,-2.6314,-2.6326,-2.6319,-2.6321,-2.6311,-2.6319,-2.6321,-2.6297,-2.6292,-2.6269,-2.6281,-2.6327,-2.6254,-2.6253,-2.6267,-2.6364,-2.6383,-2.6392,-2.6309,-2.631,-2.6311,-2.6365,0,-2.6426,-2.6444,-2.6414,-2.6438,-2.6442,-2.6401,-2.6411,-2.6399,-2.6381,-2.6382,-2.6363,-2.6364,-2.6333,-2.6329,-2.6339,-2.6319,-2.6346,-2.6315,-2.6316,-2.6316,-2.632,-2.64,-2.642,-2.6472,-2.6372,-2.6373,-2.6373,0,-2.6496,-2.6489,-2.6514,-2.6489,-2.649,-2.6499,-2.649,-2.6491,-2.6476,-2.6462,-2.6456,-2.6429,-2.6438,-2.6405,-2.6416,-2.6396,-2.6394,-2.6385,-2.6386,-2.6384,-2.6348,-2.6401,-2.6488,-2.6496,-2.6384,-2.6383,-2.6382,0,-2.6566,-2.6563,-2.6577,-2.6571,-2.6543,-2.6551,-2.654,-2.6522,-2.652,-2.6512,-2.651,-2.6504,-2.65,-2.6496,-2.6468,-2.6446,-2.6482,-2.6447,-2.6471,-2.6472,-2.648,-2.648,-2.6568,-2.648,-2.648,-2.648,-2.648,0,-2.6633,-2.665,-2.6607,-2.6616,-2.6633,-2.6599,-2.6616,-2.6601,-2.6586,-2.6591,-2.6555,-2.656,-2.6523,-2.6524,-2.6502,-2.6514,-2.6513,-2.6502,-2.6496,-2.6505,-2.6506,-2.6503,-2.6498,-2.6482,-2.6482,-2.6481,-2.6481,0,-2.6714,-2.6687,-2.6699,-2.6671,-2.6665,-2.6678,-2.6654,-2.6661,-2.6641,-2.6647,-2.6647,-2.6616,-2.6615,-2.6586,-2.6579,-2.6564,-2.6586,-2.6573,-2.6591,-2.6586,-2.6612,-2.661,-2.6701,-2.671,-2.6618,-2.6618,-2.6619,0,-2.6759,-2.677,-2.6744,-2.6744,-2.6734,-2.6736,-2.6733,-2.6699,-2.6698,-2.6681,-2.6689,-2.6685,-2.668,-2.6681,-2.6657,-2.6652,-2.6638,-2.667,-2.6637,-2.6645,-2.6638,-2.6637,-2.6638,-2.6677,-2.6679,-2.668,-2.668,0,-2.6841,-2.6826,-2.6823,-2.6816,-2.6813,-2.6806,-2.6796,-2.6798,-2.6761,-2.6761,-2.676,-2.6756,-2.6748,-2.6745,-2.6734,-2.6722,-2.6695,-2.6691,-2.6696,-2.6705,-2.6715,-2.6709,-2.6609,-2.6689,-2.6688,-2.6688,-2.6687,-2.6687,-2.6904,-2.6912,-2.6894,-2.6892,-2.6881,-2.6872,-2.6877,-2.6857,-2.6855,-2.6846,-2.6827,-2.6828,-2.6811,-2.6795,-2.6785,-2.6786,-2.6769,-2.6777,-2.6779,-2.6781,-2.6786,-2.6715,-2.6784,-2.6783,-2.6783,-2.6783,-2.6783,0,-2.6983,-2.6969,-2.6968,-2.6955,-2.6953,-2.6927,-2.6915,-2.6915,-2.6916,-2.6903,-2.6899,-2.6897,-2.6893,-2.6869,-2.6862,-2.6867,-2.6854,-2.6866,-2.6865,-2.6862,-2.6801,-2.6797,-2.6876,-2.6876,-2.6876,-2.6876,-2.6876,-2.6876,-2.7024,-2.7036,-2.7019,-2.7025,-2.7011,-2.7012,-2.7007,-2.6998,-2.6987,-2.6986,-2.6983,-2.6967,-2.6949,-2.6941,-2.6936,-2.6929,-2.6928,-2.6944,-2.6933,-2.6876,-2.6867,-2.6858,-2.6854,-2.6944,-2.6944,-2.6994,-2.6994,-2.6995]}]]